Nimes, France

2:29 AM CET on February 23, 2018 (GMT +0100)
Garons Navy

Weather History for LFTW - March, 2013

Change the Weather History Date:

Sunday, March 3, 2013

  Actual Average Record
Temperature  
Mean Temperature 46 °F -  
Max Temperature 59 °F 58 °F 73 °F (1997)
Min Temperature 32 °F 43 °F 30 °F (2005)
Degree Days  
Heating Degree Days 20    
Moisture  
Dew Point 33 °F    
Average Humidity 67    
Maximum Humidity 87    
Minimum Humidity 36    
Precipitation  
Precipitation 0.00 in - - ()
Sea Level Pressure  
Sea Level Pressure 30.03 in    
Wind  
Wind Speed 5 mph ()    
Max Wind Speed 8 mph    
Max Gust Speed -    
Visibility 4.1 miles    
Events      
Averages and records for this station are not official NWS values.
T = Trace of Precipitation, MM = Missing Value Source: Averaged Metar Reports

Daily Weather History Graph

Daily Weather History Graph

Search for Another Location

Airport or City:

Trip Planner

Search our weather history database for the weather conditions in past years. The results will help you decide how hot, cold, wet, or windy it might be!

Date:

Astronomy

Mar. 03, 2013 Rise Set
Actual Time 7:15 AM CET 6:33 PM CET
Civil Twilight 6:46 AM CET 7:02 PM CET
Nautical Twilight 6:13 AM CET 7:35 PM CET
Astronomical Twilight 5:40 AM CET 8:09 PM CET
Moon 12:06 AM CET (3/3) 10:05 AM CET (3/3)
Length of Visible Light 12h 15m
Length of Day
11h 17m
Waning Gibbous, 66% of the Moon is Illuminated
Mar 3
Waning Gibbous
Mar 4
Last Quarter
Mar 11
New
Mar 19
First Quarter
Mar 27
Full

Hourly Weather History & Observations

Time (CET) Temp. Windchill Dew Point Humidity Pressure Visibility Wind Dir Wind Speed Gust Speed Precip Events Conditions
12:00 AM 37.4 °F 32.8 °F 28.4 °F 70% 30.09 in 3.1 mi NNE 5.8 mph - N/A   Mist
12:30 AM 35.6 °F 31.7 °F 28.4 °F 75% 30.09 in 3.1 mi NNE 4.6 mph - N/A   Mist
1:00 AM 37.4 °F 32.1 °F 28.4 °F 70% 30.09 in 3.1 mi North 6.9 mph - N/A   Mist
1:30 AM 35.6 °F 31.7 °F 28.4 °F 75% 30.09 in - NNE 4.6 mph - N/A   Mist
2:00 AM 35.6 °F 30.7 °F 28.4 °F 75% 30.09 in - NNE 5.8 mph - N/A   Mist
2:30 AM 33.8 °F 28.6 °F 28.4 °F 81% 30.09 in - NNE 5.8 mph - N/A   Mist
3:00 AM 33.8 °F 29.6 °F 28.4 °F 81% 30.09 in - NNE 4.6 mph - N/A   Mist
3:30 AM 33.8 °F 27.7 °F 28.4 °F 81% 30.06 in 2.8 mi NNE 6.9 mph - N/A   Mist
4:00 AM 33.8 °F 28.6 °F 28.4 °F 81% 30.06 in - NNE 5.8 mph - N/A   Mist
4:30 AM 33.8 °F 29.6 °F 28.4 °F 81% 30.06 in - NNE 4.6 mph - N/A   Mist
5:00 AM 33.8 °F 28.6 °F 28.4 °F 81% 30.06 in - NNE 5.8 mph - N/A   Mist
5:30 AM 32.0 °F 26.4 °F 28.4 °F 87% 30.04 in - NNE 5.8 mph - N/A   Mist
6:00 AM 33.8 °F 28.6 °F 28.4 °F 81% 30.04 in - NNE 5.8 mph - N/A   Mist
6:30 AM 33.8 °F 29.6 °F 28.4 °F 81% 30.04 in - NNE 4.6 mph - N/A   Mist
7:00 AM 32.0 °F 27.5 °F 28.4 °F 87% 30.04 in - NNE 4.6 mph - N/A   Mist
7:30 AM 32.0 °F 27.5 °F 28.4 °F 87% 30.04 in - NNE 4.6 mph - N/A   Mist
8:00 AM 33.8 °F 30.8 °F 30.2 °F 87% 30.06 in - NE 3.5 mph - N/A   Mist
8:30 AM 37.4 °F 32.8 °F 30.2 °F 75% 30.06 in - NE 5.8 mph - N/A   Mist
9:00 AM 39.2 °F 34.2 °F 32.0 °F 75% 30.06 in - NNE 6.9 mph - N/A   Mist
9:30 AM 41.0 °F 36.4 °F 32.0 °F 70% 30.06 in - NE 6.9 mph - N/A   Mist
10:00 AM 42.8 °F 38.0 °F 32.0 °F 66% 30.06 in 3.1 mi NE 8.1 mph - N/A   Mist
10:30 AM 46.4 °F 42.4 °F 33.8 °F 62% 30.06 in 3.1 mi NE 8.1 mph - N/A   Mist
11:00 AM 48.2 °F - 33.8 °F 58% 30.04 in 3.1 mi NNE 8.1 mph - N/A   Mist
11:30 AM 48.2 °F - 33.8 °F 58% 30.04 in 3.1 mi NE 8.1 mph - N/A   Mist
12:00 PM 50.0 °F - 35.6 °F 58% 30.04 in 3.7 mi NE 8.1 mph - N/A   Unknown
12:30 PM 51.8 °F - 33.8 °F 50% 30.04 in 3.7 mi NE 5.8 mph - N/A   Unknown
1:00 PM 53.6 °F - 35.6 °F 51% 30.04 in 3.7 mi ENE 5.8 mph - N/A   Unknown
1:30 PM 55.4 °F - 33.8 °F 44% 30.01 in 3.7 mi East 4.6 mph - N/A   Unknown
2:00 PM 55.4 °F - 33.8 °F 44% 30.01 in 4.3 mi Variable 3.5 mph - N/A   Unknown
2:30 PM 57.2 °F - 32.0 °F 38% 30.01 in 4.3 mi Variable 3.5 mph - N/A   Unknown
3:00 PM 59.0 °F - 33.8 °F 39% 29.98 in 4.3 mi Variable 3.5 mph - N/A   Unknown
3:30 PM 59.0 °F - 32.0 °F 36% 29.98 in 4.3 mi ESE 5.8 mph - N/A   Unknown
4:00 PM 59.0 °F - 32.0 °F 36% 29.98 in 4.3 mi SSE 5.8 mph - N/A   Unknown
4:30 PM 59.0 °F - 33.8 °F 39% 29.98 in 5.0 mi SSE 4.6 mph - N/A   Unknown
5:00 PM 59.0 °F - 32.0 °F 36% 29.98 in 6.2 mi South 6.9 mph - N/A   Unknown
5:30 PM 57.2 °F - 32.0 °F 38% 29.98 in 6.2 mi South 6.9 mph - N/A   Unknown
6:00 PM 55.4 °F - 35.6 °F 47% 29.98 in 5.0 mi SSW 5.8 mph - N/A   Unknown
6:30 PM 51.8 °F - 35.6 °F 54% 29.98 in 5.0 mi SSW 5.8 mph - N/A   Unknown
7:00 PM 50.0 °F - 35.6 °F 58% 29.98 in 5.6 mi SW 3.5 mph - N/A   Unknown
7:30 PM 48.2 °F - 37.4 °F 66% 29.98 in 5.6 mi SW 5.8 mph - N/A   Unknown
8:00 PM 48.2 °F - 39.2 °F 71% 30.01 in 5.0 mi WSW 4.6 mph - N/A   Unknown
8:30 PM 46.4 °F 43.5 °F 39.2 °F 76% 30.01 in 4.3 mi WSW 5.8 mph - N/A   Unknown
9:00 PM 46.4 °F 45.2 °F 39.2 °F 76% 30.01 in 3.7 mi WSW 3.5 mph - N/A   Unknown
9:30 PM 44.6 °F 43.1 °F 39.2 °F 81% 30.01 in 3.1 mi West 3.5 mph - N/A   Mist
10:00 PM 44.6 °F - 39.2 °F 81% 30.01 in - Calm Calm - N/A   Mist
10:30 PM 42.8 °F - 39.2 °F 87% 30.04 in - Calm Calm - N/A   Mist
11:00 PM 41.0 °F - 37.4 °F 87% 30.04 in - Calm Calm - N/A   Mist
11:30 PM 41.0 °F - 37.4 °F 87% 30.04 in - NE 2.3 mph - N/A   Mist